Regional Weather Roundup
Issued by NWS State College, PA

Home | Current Version | Previous Version | Text Only | Print | Product List | Glossary Off
Versions: 1 2 3 4 5 6 7 8 9 10 11 12 13 14 15 16 17 18 19 20 21 22 23 24 25 26 27 28 29 30 31 32 33 34 35 36 37 38 39 40 41 42 43 44 45 46 47 48 49 50

000
ASUS41 KCTP 031003
RWRCTP

REGIONAL WEATHER ROUNDUP
NATIONAL WEATHER SERVICE STATE COLLEGE PA
600 AM EDT MON AUG 03 2015

Note: "fair" indicates few or no clouds below 12,000 feet with no
significant weather and/or obstructions to visibility.

* = STATION THAT DOES NOT REPORT PRECIPITATION /E.G. RAIN...SNOW...ETC/
    THUNDER OR FOG.

PAZ002>004-007>009-013>016-020>023-029>032-031100-
WESTERN PENNSYLVANIA

CITY           SKY/WX    TMP DP  RH WIND       PRES   REMARKS
ERIE           CLOUDY    67  57  70 S15       29.73F
MEADVILLE      CLOUDY    63  57  81 S9        29.82F
FRANKLIN*      CLOUDY    61  54  77 S9        29.84F
NEW CASTLE     FAIR      64  60  87 CALM      29.86F
BEAVER COUNTY  NOT AVBL
BUTLER*        PTCLDY    63  57  82 SW3       29.88F
PITTSBURGH INT MOCLDY    67  59  75 W5        29.88S
PITTSBURGH     CLEAR     67  56  67 SW7       29.88S
INDIANA*       MOCLDY    66  61  82 W7        29.91F
LATROBE        NOT AVBL
WASHINGTON CO* NOT AVBL
$$

PAZ004>006-010>012-017>019-024>028-033>037-041-042-045-046-049>053-031100-
CENTRAL PENNSYLVANIA

CITY           SKY/WX    TMP DP  RH WIND       PRES   REMARKS
BRADFORD       MOCLDY    65  58  78 SW3       29.83F
DUBOIS         PTCLDY    65  59  81 SW8       29.85F
CLEARFIELD     PTCLDY    64  58  80 S6        29.86R
JOHNSTOWN      PTCLDY    64  56  75 SW9       29.92R
ALTOONA        CLEAR     63  57  81 W5        29.89R
STATE COLLEGE  CLEAR     63  59  88 SW5       29.86R
WILLIAMSPORT   PTCLDY    65  60  84 NW3       29.82R
SELINSGROVE    CLEAR     64  60  87 VRB3      29.84R
FT INDIANTOWN  NOT AVBL
CAPITAL CITY   CLEAR     66  60  81 SW3       29.84S
HARRISBURG     PTCLDY    71  61  70 CALM      29.83F
YORK           CLEAR     64  60  87 CALM      29.84F
$$

PAZ038>040-043-044-047-048-054-055-060>062-067>071-031100-
EASTERN PENNSYLVANIA

CITY           SKY/WX    TMP DP  RH WIND       PRES   REMARKS
SCRANTON       PTCLDY    66  59  78 E3        29.83R
MOUNT POCONO   CLEAR     66  57  72 W3        29.88S
ALLENTOWN      CLEAR     62  59  90 CALM      29.84F
QUAKERTOWN*    SUNNY     61  59  94 CALM      29.86F
READING        CLEAR     69  59  70 CALM      29.83F
LANCASTER      CLEAR     62  60  93 NE3       29.85S
COATESVILLE    SUNNY     66  63  88 CALM      29.87F
POTTSTOWN      CLEAR     65  62  90 CALM      29.86F
BLUE BELL      CLEAR     63  63 100 CALM      29.85S
DOYLESTOWN     CLEAR     65  61  87 S3        29.85S
WILLOW GROVE   NOT AVBL
NORTH PHILA    CLEAR     69  60  73 CALM      29.86S
PHILADELPHIA   CLEAR     73  65  75 SW3       29.86S
$$


USA.gov is the U.S. government's official web portal to all federal, state and local government web resources and services.